EUTELSAT QUANTUM

Last updated on Wed Oct 29 2025 00:02:50 GMT+0000 (Coordinated Universal Time)

1 49056U 21069B 25300.55396667 .00000137 00000+0 00000+0 0 9998 2 49056 0.0549 69.0086 0002559 161.7025 52.6165 1.00272576 15591
UTC large
Height (km)
Speed (km/s)
/
Latitude / Longitude
Inclination (degrees)
Orbital Period (minutes)
Azimuth
Elevation
Range (km)
Doppler Factor

Next 0 passes for location: London (51.5072 / 0.1276)

Sorry there are no passes over London.